Location: ??????
(41.3794°N, 22.5014°E)
Time: 22:14:17
(UTC+00:00)

Cosmos 2218 Rocket - Pass Details

Date: 30 November 2020
Orbit: 956 x 1006 km, 82.9° (Epoch: 18 January)

Event Time Altitude Azimuth Distance (km) Brightness Sun altitude
Rises 16:03:12 0° 353° (N) 3,646 6.9 -11.4°
Reaches altitude 10° 16:05:43 10° 356° (N) 2,695 6.2 -11.8°
Maximum altitude 16:11:53 76° 82° (E) 988 3.9 -12.9°
Drops below altitude 10° 16:18:01 10° 168° (SSE) 2,689 6.4 -14.0°
Sets 16:20:31 0° 170° (S) 3,636 7.1 -14.5°
